Back to catalog

STARLINK-35390

AliveCommunicationsSSO
NORAD 65796·PAYLOAD·🇺🇸 United States

Launched Sep 26, 2025 from Vandenberg Space Force Base

Loading…

Next Passes (next 24 hours)

TLE

FreshSource: CelesTrak SupGP

Epoch: Sep 14, 2026, 15:37 UTC

1 65796C 25218F   26257.65118056 -.00057396  00000+0 -17815-2 0  2577
2 65796  97.2843 115.1106 0001687  87.5124  45.2050 15.33470766    11

Track STARLINK-35390 in real time with AllMySat

Download on the App Store